AirNav   ATP
 
 991 users online  

4M7 Russellville-Logan County Airport
Russellville, Kentucky, USA

GOING TO RUSSELLVILLE?


FAA INFORMATION EFFECTIVE 29 MARCH 2018

Location

FAA Identifier: 4M7
Lat/Long: 36-47-58.6000N / 086-48-39.3000W
36-47.976667N / 086-48.655000W
36.7996111 / -86.8109167
(estimated)
Elevation: 691.7 ft. / 210.8 m (surveyed)
Variation: 04W (2020)
From city: 4 miles SE of RUSSELLVILLE, KY
Time zone: UTC -5 (UTC -6 during Standard Time)
Zip code: 42276

Airport Operations

Airport use: Open to the public
Activation date: 02/1966
Control tower: no
ARTCC: MEMPHIS CENTER
FSS: LOUISVILLE FLIGHT SERVICE STATION
NOTAMs facility: LOU (NOTAM-D service available)
Attendance: 0900-1800
Wind indicator: lighted
Segmented circle: yes
Lights: ACTVT REIL RYS 07 & 25; PAPI RYS 07 & 25; MIRL RY 07/25 - CTAF.
Beacon: white-green (lighted land airport)
Operates sunset to sunrise.

Airport Communications

CTAF/UNICOM: 122.7
WX AWOS-3 at M91 (17 nm S): 120.675 (615-384-8206)
  • APCH/DEP SERVICE PROVIDED BY MEMPHIS ARTCC ON FREQS 133.85/317.6 (NASHVILLE RCAG).

Nearby radio navigation aids

VOR radial/distance  VOR name  Freq  Var
BWGr244/19.3BOWLING GREEN VORTAC117.9002E
CKVr071/30.8CLARKSVILLE VOR/DME110.6001W

Airport Services

Fuel available: 100LL JET-A+
Parking: tiedowns
Airframe service: NONE
Powerplant service: NONE
Bottled oxygen: NONE
Bulk oxygen: NONE

Runway Information

Runway 7/25

Dimensions: 4500 x 75 ft. / 1372 x 23 m
Surface: asphalt, in good condition
Weight bearing capacity: 
Single wheel: 12.5
Runway edge lights: medium intensity
RUNWAY 7  RUNWAY 25
Latitude: 36-47.810572N36-48.141762N
Longitude: 086-49.067543W086-48.242477W
Elevation: 691.7 ft.655.1 ft.
Gradient: 0.9% DOWN0.9% UP
Traffic pattern: leftleft
Runway heading: 067 magnetic, 063 true247 magnetic, 243 true
Markings: nonprecision, in good conditionnonprecision, in good condition
Visual slope indicator: 2-light PAPI on left (3.00 degrees glide path)2-light PAPI on left (3.00 degrees glide path)
Runway end identifier lights: yesyes
Touchdown point: yes, no lightsyes, no lights
Obstructions: none30 ft. trees, 1241 ft. from runway, 235 ft. right of centerline, 34:1 slope to clear

Airport Ownership and Management from official FAA records

Ownership: Publicly-owned
Owner: CITY COUNTY ARPT BOARD
385 AIRPORT RD.
RUSSELLVILLE, KY 42276
Phone (270) 847-7622
AIRPORT BOARD CHAIRMAN STEVE DILLIHA
Manager: STEVE PIERSON
385 AIRPORT RD.
RUSSELLVILLE, KY 42276
Phone 270-726-3214

Airport Operational Statistics

Aircraft based on the field: 20
Single engine airplanes: 18
Multi engine airplanes: 2
    
Aircraft operations: avg 51/day *
46% local general aviation
27% transient general aviation
24% military
3% air taxi
* for 12-month period ending 22 November 2016

Additional Remarks

DEER ON & INVOF ARPT.
WILDLIFE NEAR ARPT.

Instrument Procedures

NOTE: All procedures below are presented as PDF files. If you need a reader for these files, you should download the free Adobe Reader.

NOT FOR NAVIGATION. Please procure official charts for flight.
FAA instrument procedures published for use from 29 March 2018 at 0901Z to 26 April 2018 at 0900Z.

 
IAPs - Instrument Approach Procedures
RNAV (GPS) RWY 07   download (159KB)
RNAV (GPS) RWY 25   download (188KB)
NOTE: Special Take-Off Minimums/Departure Procedures apply   download (235KB)

Other nearby airports with instrument procedures:

M91 - Springfield Robertson County Airport (17 nm S)
1M5 - Portland Municipal Airport (20 nm SE)
KBWG - Bowling Green-Warren County Regional Airport (21 nm NE)
M21 - Muhlenberg County Airport (30 nm NW)
KCKV - Outlaw Field Airport (31 nm W)
 
Loc | Ops | Rwys | IFR | FBO | Links
Com | Nav | Svcs | Stats | Notes

AirNav Hotels Sweepstakes
 
Area around 4M7 (Russellville-Logan County Airport)
 
Road maps at: MapQuest Bing Google
 
Aerial photo
WARNING: Photo may not be current or correct
Aerial photo of 4M7 (Russellville-Logan County Airport)
Photo by Vickie Jost
Photo taken 05-Aug-2013
looking northeast.

Do you have a better or more recent aerial photo of Russellville-Logan County Airport that you would like to share? If so, please send us your photo.

 
Sectional chart

 
Airport distance calculator
Flying to Russellville-Logan County Airport? Find the distance to fly.

From to 4M7

Sunrise and sunset
Times for 22-Apr-2018
 Local
(UTC-5)
 Zulu
(UTC)
Morning civil twilight05:3810:38
Sunrise06:0511:05
Sunset19:2700:27
Evening civil twilight19:5400:54

Current date and time
Zulu (UTC)  22-Apr-2018 22:18:56
Local (UTC-5)  22-Apr-2018 17:18:56
 
METAR
KM91 
17nm S 
222155Z AUTO 09007G14KT 060V130 9SM SCT016 BKN034 OVC044 15/14 A3001 RMK A01 P0001
K1M5 
20nm SE 
222155Z AUTO 10007G14KT 10SM FEW043 BKN050 OVC090 15/13 A3003 RMK A01 P0006
KBWG 
21nm NE 
222153Z AUTO 11011KT 6SM -RA BR BKN070 OVC090 16/14 A3008 RMK AO2 SLP183 P0004 T01560139
KCKV 
31nm W 
222152Z AUTO 10011KT 10SM -RA BKN015 BKN022 OVC029 15/12 A3000 RMK AO2 SLP159 P0006 T01500122
KM33 
32nm SE 
222155Z AUTO VRB05G12KT 10SM FEW065 SCT090 15/14 A3006 RMK A01 P0001
TAF
KBWG 
21nm NE 
221720Z 2218/2318 11012KT 6SM -RA BKN045 FM230400 10012KT 5SM -RA BR OVC035 WS019/11048KT FM230800 10012KT 5SM -RA BR OVC017 WS020/11042KT FM231300 10012KT P6SM VCSH BKN013
NOTAMs
Click for the latest NOTAMs
NOTAMs are issued by the DoD/FAA and will open in a separate window not controlled by AirNav.

 

 
 

FBO, Fuel Providers, and Aircraft Ground Support

  
 Business Name 
 
 Contact 
 
 Services / Description 
 
Fuel Prices
 
Comments
  
Russellville-Logan County Airport 270-726-3214
270-847-5998
[web site]
[email]
Airport management, Aviation fuel, Aircraft parking (ramp or tiedown), Hangars, Hangar leasing / sales, Passenger terminal and lounge, ...

More info about Russellville-Logan County Airport
Shell
100LL Jet A
AS $4.38 $3.75 
 Updated 27-Mar-2018
 
   4 read write
AS=Assisted/Self Service
Update Fuel Prices
 

Would you like to see your business listed on this page?

 If your business provides an interesting product or service to pilots, flight crews, aircraft, or users of the Russellville-Logan County Airport, you should consider listing it here.  To start the listing process, click on the button below
 
Add a business
 

Other Pages about Russellville-Logan County Airport

Update a link
 
Copyright © AirNav, LLC. All rights reserved. Privacy Policy  Contact